| time (UTC) | temp C | wind direction | speed KPH | gust KPH | rain 1hr cm | rain 24hr cm | rain mn cm | humidity % | barometer mb |
| 20260504234511 | 22 | 55 | 0.0 | 0.0 | 0.00 | 0.00 | 0.00 | 31 | 1002.0 |
| 20260504233009 | 22 | 52 | 0.0 | 0.0 | 0.00 | 0.00 | 0.00 | 31 | 1001.7 |
| 20260504231509 | 22 | 43 | 0.0 | 0.0 | 0.00 | 0.00 | 0.00 | 30 | 1001.4 |
| 20260504230008 | 23 | 35 | 0.0 | 0.0 | 0.00 | 0.00 | 0.00 | 29 | 1000.9 |
| 20260504224507 | 24 | 39 | 0.0 | 0.0 | 0.00 | 0.00 | 0.00 | 28 | 1000.4 |
| 20260504223009 | 25 | 32 | 0.0 | 0.0 | 0.00 | 0.00 | 0.00 | 26 | 1000.2 |
| 20260504221508 | 26 | 41 | 0.0 | 0.0 | 0.00 | 0.00 | 0.00 | 25 | 999.8 |
| 20260504220011 | 26 | 27 | 0.0 | 0.0 | 0.00 | 0.00 | 0.00 | 23 | 1000.0 |
| 20260504214502 | 27 | 63 | 0.0 | 0.0 | 0.00 | 0.00 | 0.00 | 16 | 1000.0 |
| 20260504213002 | 27 | 39 | 0.0 | 0.0 | 0.00 | 0.00 | 0.00 | 15 | 1000.2 |
| 20260504211559 | 27 | 62 | 0.0 | 0.0 | 0.00 | 0.00 | 0.00 | 16 | 1000.3 |
| 20260504210104 | 27 | 35 | 0.0 | 0.0 | 0.00 | 0.00 | 0.00 | 17 | 1000.6 |
| 20260504204601 | 27 | 75 | 0.0 | 0.0 | 0.00 | 0.00 | 0.00 | 17 | 1000.9 |
| 20260504203050 | 27 | 39 | 0.0 | 0.0 | 0.00 | 0.00 | 0.00 | 17 | 1001.0 |
| 20260504201548 | 27 | 88 | 0.0 | 0.0 | 0.00 | 0.00 | 0.00 | 17 | 1001.3 |
| 20260504200046 | 26 | 14 | 0.0 | 0.0 | 0.00 | 0.00 | 0.00 | 17 | 1001.4 |
| 20260504194542 | 26 | 43 | 0.0 | 0.0 | 0.00 | 0.00 | 0.00 | 18 | 1001.6 |
| 20260504193053 | 26 | 76 | 0.0 | 0.0 | 0.00 | 0.00 | 0.00 | 18 | 1001.8 |
| 20260504191537 | 25 | 80 | 0.0 | 0.0 | 0.00 | 0.00 | 0.00 | 19 | 1002.0 |
| 20260504190035 | 25 | 52 | 0.0 | 0.0 | 0.00 | 0.00 | 0.00 | 18 | 1002.1 |
| 20260504184531 | 25 | 63 | 0.0 | 0.0 | 0.00 | 0.00 | 0.00 | 18 | 1002.3 |
| 20260504183029 | 25 | 55 | 0.0 | 0.0 | 0.00 | 0.00 | 0.00 | 19 | 1002.5 |
| 20260504181528 | 25 | 50 | 0.0 | 0.0 | 0.00 | 0.00 | 0.00 | 19 | 1002.8 |
| 20260504180025 | 25 | 53 | 0.0 | 0.0 | 0.00 | 0.00 | 0.00 | 18 | 1002.9 |
| 20260504174523 | 25 | 51 | 0.0 | 0.0 | 0.00 | 0.00 | 0.00 | 19 | 1003.1 |
| 20260504173020 | 24 | 29 | 0.0 | 0.0 | 0.00 | 0.00 | 0.00 | 20 | 1003.0 |
| 20260504171517 | 24 | 60 | 0.0 | 0.0 | 0.00 | 0.00 | 0.00 | 22 | 1003.3 |
| 20260504081511 | 7 | 249 | 0.0 | 0.0 | 0.00 | 0.00 | 0.00 | 63 | 1004.6 |
| 20260504044538 | 13 | 127 | 0.0 | 0.0 | 0.00 | 0.00 | 0.00 | 43 | 1006.1 |
| 20260504043042 | 14 | 127 | 0.0 | 0.0 | 0.00 | 0.00 | 0.00 | 41 | 1006.3 |
| 20260504041535 | 16 | 127 | 0.0 | 0.0 | 0.00 | 0.00 | 0.00 | 38 | 1006.4 |
| 20260504040034 | 15 | 97 | 0.0 | 0.0 | 0.00 | 0.00 | 0.00 | 40 | 1006.5 |
| 20260504034539 | 16 | 98 | 0.0 | 0.0 | 0.00 | 0.00 | 0.00 | 38 | 1006.6 |
| 20260504033034 | 16 | 90 | 0.0 | 0.0 | 0.00 | 0.00 | 0.00 | 38 | 1006.5 |
| 20260504031532 | 16 | 85 | 0.0 | 0.0 | 0.00 | 0.00 | 0.00 | 38 | 1006.4 |
| 20260504030032 | 16 | 84 | 0.0 | 0.0 | 0.00 | 0.00 | 0.00 | 36 | 1006.3 |
| 20260504024531 | 16 | 85 | 0.0 | 0.0 | 0.00 | 0.00 | 0.00 | 36 | 1006.3 |
| 20260504023031 | 16 | 57 | 0.0 | 0.0 | 0.00 | 0.00 | 0.00 | 35 | 1006.2 |
| 20260504021535 | 17 | 76 | 0.0 | 0.0 | 0.00 | 0.00 | 0.00 | 33 | 1005.9 |
| 20260504020040 | 18 | 76 | 0.0 | 0.0 | 0.00 | 0.00 | 0.00 | 31 | 1005.9 |
| 20260504014536 | 20 | 71 | 0.0 | 0.0 | 0.00 | 0.00 | 0.00 | 29 | 1005.8 |
| 20260504013030 | 21 | 69 | 0.0 | 0.0 | 0.00 | 0.00 | 0.00 | 28 | 1005.7 |
| 20260504011529 | 21 | 66 | 0.0 | 0.0 | 0.00 | 0.00 | 0.00 | 27 | 1005.8 |
| 20260504010027 | 22 | 66 | 0.0 | 0.0 | 0.00 | 0.00 | 0.00 | 26 | 1005.8 |
| 20260504004525 | 23 | 70 | 0.0 | 0.0 | 0.00 | 0.00 | 0.00 | 24 | 1005.9 |
| 20260504003024 | 23 | 33 | 0.0 | 0.0 | 0.00 | 0.00 | 0.00 | 24 | 1006.0 |
| 20260504001524 | 24 | 56 | 0.0 | 0.0 | 0.00 | 0.00 | 0.00 | 23 | 1006.1 |
| 20260504000021 | 24 | 57 | 0.0 | 0.0 | 0.00 | 0.00 | 0.00 | 22 | 1006.3 |